THORAD DELTA 1 DEB, 42595

Orbit data source: Space-Track

THORAD DELTA 1 DEB, 42595 is space debris in SSO originally from a launch on Fri, 15 Nov 1974 UTC launched from the Air Force Western Test Range (AFWTR). Debris objects in space refer to the collection of defunct objects orbiting the Earth. Examples of debris include non-operational satellites, rocket bodies, and fragments generated from explosions, collisions, or faulty payload assembly.

Loading next visibility...
Identifier
42595, 1974-089FL
Orbit
SSO
Country
Flag of USUS
Related business
Manufacturer
Unknown
Mission
Spacecraft
Bus & Motor
Unknown
Mass
Unknown
Launch date (UTC)
1974-11-15 (52 years ago)
Launch vehicle
Unknown
Launch site
Air Force Western Test Range (AFWTR)
Object type
Payload
Rocket body
Debris
Shape & HBR
Unknown shape, 0.1 m
Radar Cross Section
Medium (>0.1 m² and <1 m²)

Expand to show TLE details & history
Last TLE update: 14 hours ago

TLE from 14 hours ago
0 THORAD DELTA 1 DEB
1 42595U 74089FL  26169.87202083  .00000020  00000-0  43651-3 0  9991
2 42595 101.6614 140.8859 0040158 311.9061  47.8586 12.46714479572175
Epoch: 2026-06-18T20:55Z
TLE epoch observation values (Epoch: 2026-06-18T20:55:42.599Z)
Latitude
-0.00001°
Longitude
-80.15071°
Altitude
1,459.737 km
Speed
7.142 km/s
True Right ascension
09h 23m 32s
True Declination
0° 00' 00"
Sunlit
Object was in daylight at epoch
Visualization orbit readout
Latitude
Unknown
Longitude
Unknown
Altitude
Unknown
Speed
Unknown
Apparent Right ascension
Unknown
Apparent Declination
Unknown
Sunlit
N/A
Visualization observer readout
Local Sidereal Time
21:16:23
Azimuth
Unknown
Elevation
Unknown
Doppler factor
Unknown
Orbital elements
Apogee altitude
1,507.353 km
Perigee altitude
1,444.274 km
Semi-major axis
7,853.951 km
Eccentricity
0.00402
Inclination
101.6614°
RAAN
140.8859°
Arg. of periapsis
311.9061°
True anomaly
48.20097°
Mean anomaly
47.8586°
Eccentric anomaly
48.02967°
Mean motion
3.11825 °/min
Orbital period
115.45 mins
BSTAR
0.00043651
Loading maneuver chart data...
Computing Atmospheric mass density...

Documentation

Showing up to 5 results
|